Lid_Strength_Index
1 1 1 1 2 2 2 2 3 3 3 3 3 3 3 3 3 3 3 3 3 3 3 3 2 2 2 3 5 0 -1 -0 1 2 3 4 5 5 7 7 6 7 6 6 6 6 5
1 1 1 1 2 2 2 2 2 2 3 3 3 3 3 3 3 3 3 3 3 3 3 3 2 2 2 6 2 1 1 2 2 3 4 4 5 5 6 6 6 6 6 6 5 5 4
1 1 1 1 2 2 2 2 2 2 2 3 3 3 3 3 3 3 3 3 3 3 3 2 2 1 3 5 2 1 2 2 2 3 4 3 3 5 5 6 5 6 7 5 5 5 5
1 1 1 1 2 2 2 2 2 2 2 2 3 3 3 3 3 3 3 3 3 3 3 2 2 1 4 2 1 2 2 2 1 2 3 3 3 5 5 4 6 7 6 9 6 5 5
1 1 1 1 2 2 2 2 2 2 2 2 3 3 3 3 3 3 3 3 3 3 2 1 1 2 5 3 4 3 2 4 3 3 2 3 3 5 5 7 8 7 9 8 7 5 5
1 1 1 1 2 2 2 2 2 2 2 2 3 3 3 3 3 3 3 3 2 2 1 1 2 5 5 6 4 3 2 3 4 4 5 4 4 6 6 7 11 10 9 8 9 6 6
1 1 1 2 2 2 2 2 2 2 2 2 3 3 3 3 3 3 4 1 3 3 2 5 6 6 5 4 3 4 3 4 4 5 7 6 7 8 7 7 7 8 8 9 7 6 7
2 2 2 2 2 2 3 3 3 2 2 3 3 3 3 3 3 3 3 4 4 3 5 3 5 5 5 4 6 5 3 6 6 7 6 6 9 6 6 6 7 8 9 9 7 6 7
2 2 2 2 2 3 3 3 3 3 3 3 3 3 3 3 3 3 3 3 2 2 5 4 5 6 6 5 7 6 5 6 6 7 7 8 7 6 7 7 8 8 9 9 10 8 7
2 2 3 3 3 3 3 3 3 3 3 3 3 3 4 4 5 2 3 2 2 2 8 7 7 6 5 5 7 5 5 6 6 7 7 7 6 7 7 8 7 10 7 8 9 10 13
3 3 3 3 3 3 3 4 4 4 3 4 4 3 4 5 2 3 2 1 1 2 15 8 7 4 5 7 7 7 4 5 7 7 7 8 7 7 8 8 7 9 7 8 8 10 10
3 3 3 3 4 4 4 4 3 3 3 3 3 3 4 2 1 2 2 1 1 9 14 9 7 7 7 7 7 6 6 3 4 6 6 6 5 6 7 6 6 6 8 8 8 9 16
3 3 3 4 4 4 4 4 4 4 4 4 4 4 5 2 4 2 1 2 9 11 7 9 9 7 8 8 8 7 7 7 8 11 10 7 7 6 6 7 6 7 10 16 16 15 15
3 3 4 4 4 4 4 5 4 4 4 4 5 5 3 1 1 1 2 5 12 9 9 7 8 7 9 8 7 7 7 8 6 7 9 11 12 8 6 7 9 9 10 18 23 19 16
3 4 4 4 4 4 4 5 5 5 5 5 5 2 1 0 1 1 4 9 9 8 8 8 7 9 8 7 7 7 7 8 7 6 11 11 11 6 6 6 7 9 12 9 17 14 18
3 3 4 4 4 4 4 5 5 5 5 5 3 2 2 1 -0 2 6 8 8 7 7 7 9 8 9 8 8 8 8 7 8 6 6 8 13 8 7 6 6 8 7 14 13 21 20
3 3 3 3 4 5 5 5 5 5 5 5 3 5 2 1 1 4 7 7 7 6 6 7 8 8 8 8 8 8 8 7 7 7 6 7 10 10 7 9 10 10 10 10 12 15 21
3 3 3 4 4 5 6 6 5 5 6 4 3 6 2 1 5 4 6 6 8 6 5 6 5 6 8 8 9 9 9 7 5 7 9 6 9 13 10 7 6 7 9 9 16 17 16
3 4 4 4 5 6 6 6 6 6 5 4 5 4 1 1 7 5 6 6 6 6 6 6 7 6 5 8 10 8 7 5 6 7 9 7 10 15 12 9 8 9 8 9 10 11 15
4 5 6 6 6 6 6 6 6 5 5 3 4 6 3 1 3 6 7 7 7 5 5 5 6 5 6 8 7 8 8 6 6 6 6 6 9 13 18 13 10 11 10 9 11 15 16
6 6 6 7 7 7 6 6 6 5 5 3 2 5 4 6 5 5 5 6 7 8 5 5 6 7 7 9 9 8 7 6 5 6 6 8 13 10 10 9 9 10 10 9 12 12 16
7 7 7 7 7 6 7 6 6 5 5 2 5 5 3 5 5 6 7 7 8 7 6 7 7 6 6 9 8 9 8 7 8 6 6 6 11 10 11 9 9 10 9 10 10 10 12
7 7 7 7 7 7 6 6 5 5 4 2 2 1 4 5 5 6 6 7 7 6 5 5 6 7 7 6 5 5 5 5 5 7 8 8 9 12 13 9 9 13 11 10 10 9 11
7 7 7 7 7 6 6 6 5 5 4 1 1 2 4 6 5 6 6 6 6 6 7 5 5 6 5 3 3 4 5 5 5 6 5 8 9 9 12 10 16 10 7 7 9 9 9
7 7 7 7 6 6 6 6 5 4 4 2 1 2 4 7 5 6 5 6 5 5 6 5 5 3 2 4 7 9 8 8 8 6 7 7 9 12 13 13 10 9 9 8 9 10 8
7 7 7 7 6 6 6 5 4 4 4 3 2 1 3 5 5 4 5 5 6 6 6 5 3 2 3 6 8 11 13 10 10 9 6 7 7 11 12 16 20 10 7 5 5 14 7
7 7 7 7 6 5 5 5 5 4 4 4 2 -0 3 5 4 4 5 6 4 5 6 5 5 5 4 7 9 10 11 8 12 11 10 9 9 12 12 12 10 7 6 5 11 12 5
6 7 7 6 6 5 6 6 5 4 4 4 3 -0 3 5 5 4 4 4 4 4 7 5 6 6 6 9 9 9 9 9 10 9 9 11 11 11 11 13 17 6 6 9 7 5 5
6 6 6 6 6 6 6 6 5 4 4 4 5 1 1 4 4 2 2 2 2 2 4 4 5 6 5 8 7 7 9 8 9 12 6 11 9 10 10 10 6 5 5 4 3 4 4